This is the latest recevied weather packets stored in our database for station/object K5YNC. If no packets are shown the sender has not sent any weather packets the latest 1 day(s).
| Time | Temp. | Humidity | Pressure | Rain* | Wind** | Luminosity | Snow |
|---|---|---|---|---|---|---|---|
| 1778036410 | 13.33° C | 79% | 1012.5 hPa | 0 mm | - | 0 W/m² | - |
| 1778036107 | 13.33° C | 79% | 1012.4 hPa | 0 mm | - | 0 W/m² | - |
| 1778035500 | 13.33° C | 80% | 1012.3 hPa | 0 mm | - | 0 W/m² | - |
| 1778035196 | 13.33° C | 80% | 1012.3 hPa | 0 mm | - | 0 W/m² | - |
| 1778034893 | 13.33° C | 80% | 1011.6 hPa | 0 mm | - | 0 W/m² | - |
| 1778034589 | 13.33° C | 80% | 1011.3 hPa | 0 mm | - | 0 W/m² | - |
| 1778034287 | 13.89° C | 80% | 1011.4 hPa | 0 mm | - | 0 W/m² | - |
| 1778033985 | 13.89° C | 80% | 1011.1 hPa | 0 mm | - | 0 W/m² | - |
| 1778033682 | 13.89° C | 80% | 1010.9 hPa | 0 mm | - | 0 W/m² | - |
| 1778033379 | 13.89° C | 80% | 1011 hPa | 0 mm | - | 0 W/m² | - |
| 1778033077 | 13.89° C | 80% | 1010.2 hPa | 0 mm | - | 0 W/m² | - |
| 1778032774 | 13.89° C | 80% | 1010.2 hPa | 0 mm | - | 0 W/m² | - |
| 1778032472 | 14.44° C | 80% | 1010.2 hPa | 0 mm | - | 0 W/m² | - |
| 1778032168 | 14.44° C | 80% | 1010.2 hPa | 0 mm | - | 0 W/m² | - |
| 1778031865 | 14.44° C | 80% | 1010 hPa | 0 mm | - | 0 W/m² | - |
| 1778031561 | 14.44° C | 80% | 1010.2 hPa | 0 mm | - | 0 W/m² | - |
| 1778031260 | 15° C | 79% | 1009.9 hPa | 0 mm | - | 0 W/m² | - |
| 1778030956 | 15° C | 79% | 1010 hPa | 0 mm | - | 0 W/m² | - |
| 1778030652 | 15.56° C | 79% | 1009.6 hPa | 0 mm | - | 0 W/m² | - |
| 1778029442 | 16.11° C | 77% | 1009.5 hPa | 0 mm | - | 5 W/m² | - |
| 1778029138 | 16.11° C | 77% | 1009.4 hPa | 0 mm | - | 10 W/m² | - |
| 1778028531 | 16.67° C | 77% | 1009.2 hPa | 0 mm | - | 14 W/m² | - |
| 1778028229 | 16.67° C | 77% | 1009.6 hPa | 0 mm | - | 20 W/m² | - |
| 1778027621 | 16.67° C | 76% | 1009.4 hPa | 0 mm | - | 32 W/m² | - |
| 1778027318 | 16.67° C | 76% | 1009.2 hPa | 0 mm | - | 31 W/m² | - |
* Rain latest hour (hover to see other rain measurements)
** Current wind speed in m/s (hover to see current wind gust speed)